![]() |
EMODnet Physics ERDDAP
Easier access to scientific data |
log in|
Brought to you by EMODnet Physics |
| Dataset Title: | NDBC - Collection of dew point temperature (DEWT) TimeSeries - IN SITU MultiPointTimeSeriesObservation
|
| Institution: | NDBC (Dataset ID: TS_DEWT_NDBC) |
| Information: | Summary
| License
| FGDC
| ISO 19115
| Metadata
| Background
| Subset
| Data Access Form
| Make a graph
|
| Name | Last modified | Size | Description | |
|---|---|---|---|---|
| Parent Directory | - | - | ||
| 46053_TS_DEWT_011994.nc | 14-Nov-2024 19:18 | 429695 | ||
| 46053_TS_DEWT_011995.nc | 14-Nov-2024 20:03 | 429684 | ||
| 46053_TS_DEWT_011996.nc | 14-Nov-2024 20:51 | 429690 | ||
| 46053_TS_DEWT_011997.nc | 14-Nov-2024 21:36 | 429691 | ||
| 46053_TS_DEWT_011999.nc | 14-Nov-2024 22:20 | 429691 | ||
| 46053_TS_DEWT_012000.nc | 14-Nov-2024 23:07 | 429685 | ||
| 46053_TS_DEWT_012001.nc | 14-Nov-2024 23:51 | 429909 | ||
| 46053_TS_DEWT_012002.nc | 15-Nov-2024 00:42 | 429907 | ||
| 46053_TS_DEWT_012003.nc | 15-Nov-2024 01:28 | 429913 | ||
| 46053_TS_DEWT_012004.nc | 15-Nov-2024 02:14 | 429886 | ||
| 46053_TS_DEWT_012005.nc | 15-Nov-2024 03:02 | 429905 | ||
| 46053_TS_DEWT_012006.nc | 15-Nov-2024 03:46 | 429910 | ||
| 46053_TS_DEWT_012007.nc | 15-Nov-2024 04:35 | 429910 | ||
| 46053_TS_DEWT_012008.nc | 15-Nov-2024 05:12 | 429911 | ||
| 46053_TS_DEWT_012009.nc | 15-Nov-2024 06:02 | 429910 | ||
| 46053_TS_DEWT_012010.nc | 15-Nov-2024 06:32 | 429910 | ||
| 46053_TS_DEWT_012011.nc | 15-Nov-2024 07:01 | 429910 | ||
| 46053_TS_DEWT_012012.nc | 15-Nov-2024 07:31 | 429907 | ||
| 46053_TS_DEWT_012013.nc | 15-Nov-2024 08:20 | 429910 | ||
| 46053_TS_DEWT_012014.nc | 15-Nov-2024 09:17 | 429750 | ||
| 46053_TS_DEWT_012016.nc | 15-Nov-2024 10:40 | 429646 | ||
| 46053_TS_DEWT_012017.nc | 15-Nov-2024 11:32 | 429911 | ||
| 46053_TS_DEWT_012018.nc | 15-Nov-2024 12:23 | 429909 | ||
| 46053_TS_DEWT_012019.nc | 15-Nov-2024 13:22 | 429907 | ||
| 46053_TS_DEWT_012020.nc | 15-Nov-2024 14:23 | 429911 | ||
| 46053_TS_DEWT_012021.nc | 15-Nov-2024 15:17 | 429907 | ||
| 46053_TS_DEWT_012022.nc | 15-Nov-2024 15:47 | 480432 | ||
| 46053_TS_DEWT_012023.nc | 15-Nov-2024 16:26 | 3679946 | ||
| 46053_TS_DEWT_012025.nc | 07-Feb-2025 12:11 | 3554893 | ||
| 46053_TS_DEWT_012026.nc | 02-Feb-2026 19:42 | 1477622 | ||
| 46053_TS_DEWT_021994.nc | 14-Nov-2024 19:22 | 1626624 | ||
| 46053_TS_DEWT_021995.nc | 14-Nov-2024 20:08 | 1627848 | ||
| 46053_TS_DEWT_021996.nc | 14-Nov-2024 20:55 | 1626271 | ||
| 46053_TS_DEWT_021999.nc | 14-Nov-2024 22:24 | 1476524 | ||
| 46053_TS_DEWT_022000.nc | 14-Nov-2024 23:10 | 1627616 | ||
| 46053_TS_DEWT_022001.nc | 14-Nov-2024 23:56 | 1627852 | ||
| 46053_TS_DEWT_022002.nc | 15-Nov-2024 00:46 | 1627549 | ||
| 46053_TS_DEWT_022003.nc | 15-Nov-2024 01:33 | 1627631 | ||
| 46053_TS_DEWT_022004.nc | 15-Nov-2024 02:20 | 1627677 | ||
| 46053_TS_DEWT_022005.nc | 15-Nov-2024 03:05 | 1627551 | ||
| 46053_TS_DEWT_022006.nc | 15-Nov-2024 03:51 | 1627486 | ||
| 46053_TS_DEWT_022007.nc | 15-Nov-2024 04:38 | 1626332 | ||
| 46053_TS_DEWT_022008.nc | 15-Nov-2024 05:16 | 1627569 | ||
| 46053_TS_DEWT_022009.nc | 15-Nov-2024 06:05 | 1465791 | ||
| 46053_TS_DEWT_022010.nc | 15-Nov-2024 06:36 | 1627862 | ||
| 46053_TS_DEWT_022011.nc | 15-Nov-2024 07:03 | 1476462 | ||
| 46053_TS_DEWT_022012.nc | 15-Nov-2024 07:34 | 1153050 | ||
| 46053_TS_DEWT_022013.nc | 15-Nov-2024 08:24 | 1464247 | ||
| 46053_TS_DEWT_022014.nc | 15-Nov-2024 09:21 | 1474283 | ||
| 46053_TS_DEWT_022016.nc | 15-Nov-2024 10:45 | 1470826 | ||
| 46053_TS_DEWT_022017.nc | 15-Nov-2024 11:36 | 1458966 | ||
| 46053_TS_DEWT_022018.nc | 15-Nov-2024 12:27 | 1470467 | ||
| 46053_TS_DEWT_022019.nc | 15-Nov-2024 13:27 | 1474397 | ||
| 46053_TS_DEWT_022020.nc | 15-Nov-2024 14:28 | 1470904 | ||
| 46053_TS_DEWT_022021.nc | 15-Nov-2024 15:23 | 1470615 | ||
| 46053_TS_DEWT_022022.nc | 15-Nov-2024 15:49 | 1470876 | ||
| 46053_TS_DEWT_022023.nc | 15-Nov-2024 16:30 | 1474263 | ||
| 46053_TS_DEWT_022025.nc | 01-Mar-2025 08:41 | 1470594 | ||
| 46053_TS_DEWT_022026.nc | 01-Mar-2026 11:09 | 1470882 | ||
| 46053_TS_DEWT_031994.nc | 14-Nov-2024 19:26 | 1470894 | ||
| 46053_TS_DEWT_031995.nc | 14-Nov-2024 20:12 | 1474178 | ||
| 46053_TS_DEWT_031996.nc | 14-Nov-2024 20:57 | 1150607 | ||
| 46053_TS_DEWT_031999.nc | 14-Nov-2024 22:28 | 1470771 | ||
| 46053_TS_DEWT_032000.nc | 14-Nov-2024 23:13 | 1459061 | ||
| 46053_TS_DEWT_032001.nc | 15-Nov-2024 00:00 | 420825 | ||
| 46053_TS_DEWT_032002.nc | 15-Nov-2024 00:50 | 1626278 | ||
| 46053_TS_DEWT_032003.nc | 15-Nov-2024 01:38 | 1472951 | ||
| 46053_TS_DEWT_032004.nc | 15-Nov-2024 02:26 | 1478476 | ||
| 46053_TS_DEWT_032005.nc | 15-Nov-2024 03:08 | 1627834 | ||
| 46053_TS_DEWT_032006.nc | 15-Nov-2024 03:55 | 1625693 | ||
| 46053_TS_DEWT_032007.nc | 15-Nov-2024 04:41 | 1625256 | ||
| 46053_TS_DEWT_032008.nc | 15-Nov-2024 05:21 | 1627795 | ||
| 46053_TS_DEWT_032009.nc | 15-Nov-2024 06:08 | 1627761 | ||
| 46053_TS_DEWT_032010.nc | 15-Nov-2024 06:39 | 1625852 | ||
| 46053_TS_DEWT_032011.nc | 15-Nov-2024 07:05 | 1626107 | ||
| 46053_TS_DEWT_032012.nc | 15-Nov-2024 07:38 | 1626364 | ||
| 46053_TS_DEWT_032013.nc | 15-Nov-2024 08:29 | 1627546 | ||
| 46053_TS_DEWT_032016.nc | 15-Nov-2024 10:50 | 1627784 | ||
| 46053_TS_DEWT_032017.nc | 15-Nov-2024 11:40 | 1627567 | ||
| 46053_TS_DEWT_032018.nc | 15-Nov-2024 12:31 | 1627781 | ||
| 46053_TS_DEWT_032019.nc | 15-Nov-2024 13:33 | 1160162 | ||
| 46053_TS_DEWT_032020.nc | 15-Nov-2024 14:33 | 1627551 | ||
| 46053_TS_DEWT_032021.nc | 15-Nov-2024 15:27 | 1470003 | ||
| 46053_TS_DEWT_032022.nc | 15-Nov-2024 15:51 | 1469289 | ||
| 46053_TS_DEWT_032023.nc | 15-Nov-2024 16:35 | 1477352 | ||
| 46053_TS_DEWT_032025.nc | 02-Apr-2025 06:54 | 1477778 | ||
| 46053_TS_DEWT_032026.nc | 24-Mar-2026 11:49 | 1474493 | ||
| 46053_TS_DEWT_041994.nc | 14-Nov-2024 19:30 | 1477901 | ||
| 46053_TS_DEWT_041995.nc | 14-Nov-2024 20:16 | 1477923 | ||
| 46053_TS_DEWT_041996.nc | 14-Nov-2024 21:01 | 1477968 | ||
| 46053_TS_DEWT_041998.nc | 14-Nov-2024 21:40 | 1477952 | ||
| 46053_TS_DEWT_041999.nc | 14-Nov-2024 22:33 | 1477786 | ||
| 46053_TS_DEWT_042000.nc | 14-Nov-2024 23:17 | 1476918 | ||
| 46053_TS_DEWT_042001.nc | 15-Nov-2024 00:03 | 1477059 | ||
| 46053_TS_DEWT_042002.nc | 15-Nov-2024 00:53 | 1476204 | ||
| 46053_TS_DEWT_042003.nc | 15-Nov-2024 01:42 | 1477795 | ||
| 46053_TS_DEWT_042004.nc | 15-Nov-2024 02:29 | 1477906 | ||
| 46053_TS_DEWT_042005.nc | 15-Nov-2024 03:12 | 1478000 | ||
| 46053_TS_DEWT_042006.nc | 15-Nov-2024 03:59 | 1477848 | ||
| 46053_TS_DEWT_042007.nc | 15-Nov-2024 04:45 | 1477327 | ||
| 46053_TS_DEWT_042008.nc | 15-Nov-2024 05:25 | 1153963 | ||
| 46053_TS_DEWT_042009.nc | 15-Nov-2024 06:10 | 1469013 | ||
| 46053_TS_DEWT_042010.nc | 15-Nov-2024 06:42 | 1627596 | ||
| 46053_TS_DEWT_042011.nc | 15-Nov-2024 07:08 | 1625124 | ||
| 46053_TS_DEWT_042012.nc | 15-Nov-2024 07:42 | 1627723 | ||
| 46053_TS_DEWT_042013.nc | 15-Nov-2024 08:34 | 1627849 | ||
| 46053_TS_DEWT_042016.nc | 15-Nov-2024 10:53 | 1627826 | ||
| 46053_TS_DEWT_042017.nc | 15-Nov-2024 11:44 | 1627830 | ||
| 46053_TS_DEWT_042018.nc | 15-Nov-2024 12:36 | 1627430 | ||
| 46053_TS_DEWT_042019.nc | 15-Nov-2024 13:38 | 1627856 | ||
| 46053_TS_DEWT_042020.nc | 15-Nov-2024 14:37 | 1627517 | ||
| 46053_TS_DEWT_042021.nc | 15-Nov-2024 15:30 | 1627852 | ||
| 46053_TS_DEWT_042022.nc | 15-Nov-2024 15:52 | 1627775 | ||
| 46053_TS_DEWT_042023.nc | 15-Nov-2024 16:39 | 1627543 | ||
| 46053_TS_DEWT_042025.nc | 01-May-2025 04:29 | 1627554 | ||
| 46053_TS_DEWT_051994.nc | 14-Nov-2024 19:34 | 1627869 | ||
| 46053_TS_DEWT_051995.nc | 14-Nov-2024 20:19 | 1625394 | ||
| 46053_TS_DEWT_051996.nc | 14-Nov-2024 21:04 | 1627778 | ||
| 46053_TS_DEWT_051998.nc | 14-Nov-2024 21:44 | 1627636 | ||
| 46053_TS_DEWT_051999.nc | 14-Nov-2024 22:37 | 1469761 | ||
| 46053_TS_DEWT_052000.nc | 14-Nov-2024 23:21 | 1459781 | ||
| 46053_TS_DEWT_052001.nc | 15-Nov-2024 00:07 | 1476330 | ||
| 46053_TS_DEWT_052002.nc | 15-Nov-2024 00:56 | 1469807 | ||
| 46053_TS_DEWT_052003.nc | 15-Nov-2024 01:48 | 1477802 | ||
| 46053_TS_DEWT_052004.nc | 15-Nov-2024 02:34 | 1476988 | ||
| 46053_TS_DEWT_052005.nc | 15-Nov-2024 03:15 | 1474944 | ||
| 46053_TS_DEWT_052006.nc | 15-Nov-2024 04:02 | 1477692 | ||
| 46053_TS_DEWT_052007.nc | 15-Nov-2024 04:49 | 1477953 | ||
| 46053_TS_DEWT_052008.nc | 15-Nov-2024 05:29 | 1477695 | ||
| 46053_TS_DEWT_052009.nc | 15-Nov-2024 06:12 | 1477954 | ||
| 46053_TS_DEWT_052010.nc | 15-Nov-2024 06:43 | 1477988 | ||
| 46053_TS_DEWT_052011.nc | 15-Nov-2024 07:11 | 1478005 | ||
| 46053_TS_DEWT_052012.nc | 15-Nov-2024 07:46 | 1477148 | ||
| 46053_TS_DEWT_052013.nc | 15-Nov-2024 08:39 | 1477922 | ||
| 46053_TS_DEWT_052014.nc | 15-Nov-2024 09:26 | 1477682 | ||
| 46053_TS_DEWT_052015.nc | 15-Nov-2024 10:02 | 1477965 | ||
| 46053_TS_DEWT_052016.nc | 15-Nov-2024 10:57 | 1472438 | ||
| 46053_TS_DEWT_052017.nc | 15-Nov-2024 11:48 | 425334 | ||
| 46053_TS_DEWT_052018.nc | 15-Nov-2024 12:41 | 1462277 | ||
| 46053_TS_DEWT_052019.nc | 15-Nov-2024 13:44 | 1627591 | ||
| 46053_TS_DEWT_052020.nc | 15-Nov-2024 14:41 | 1627768 | ||
| 46053_TS_DEWT_052021.nc | 15-Nov-2024 15:33 | 1626406 | ||
| 46053_TS_DEWT_052022.nc | 15-Nov-2024 15:54 | 1478292 | ||
| 46053_TS_DEWT_052023.nc | 15-Nov-2024 16:43 | 1627638 | ||
| 46053_TS_DEWT_052025.nc | 01-Jun-2025 04:20 | 1627803 | ||
| 46053_TS_DEWT_061994.nc | 14-Nov-2024 19:38 | 1627833 | ||
| 46053_TS_DEWT_061995.nc | 14-Nov-2024 20:23 | 1626544 | ||
| 46053_TS_DEWT_061996.nc | 14-Nov-2024 21:07 | 1627513 | ||
| 46053_TS_DEWT_061998.nc | 14-Nov-2024 21:49 | 1626712 | ||
| 46053_TS_DEWT_061999.nc | 14-Nov-2024 22:42 | 1626739 | ||
| 46053_TS_DEWT_062000.nc | 14-Nov-2024 23:24 | 1627718 | ||
| 46053_TS_DEWT_062001.nc | 15-Nov-2024 00:12 | 1626374 | ||
| 46053_TS_DEWT_062002.nc | 15-Nov-2024 01:00 | 1627826 | ||
| 46053_TS_DEWT_062003.nc | 15-Nov-2024 01:52 | 1627845 | ||
| 46053_TS_DEWT_062004.nc | 15-Nov-2024 02:37 | 1626419 | ||
| 46053_TS_DEWT_062005.nc | 15-Nov-2024 03:17 | 607912 | ||
| 46053_TS_DEWT_062006.nc | 15-Nov-2024 04:06 | 1152789 | ||
| 46053_TS_DEWT_062007.nc | 15-Nov-2024 04:52 | 1627842 | ||
| 46053_TS_DEWT_062008.nc | 15-Nov-2024 05:33 | 1627836 | ||
| 46053_TS_DEWT_062009.nc | 15-Nov-2024 06:15 | 1475774 | ||
| 46053_TS_DEWT_062010.nc | 15-Nov-2024 06:44 | 1627864 | ||
| 46053_TS_DEWT_062011.nc | 15-Nov-2024 07:13 | 1627861 | ||
| 46053_TS_DEWT_062012.nc | 15-Nov-2024 07:50 | 1627389 | ||
| 46053_TS_DEWT_062013.nc | 15-Nov-2024 08:44 | 1627827 | ||
| 46053_TS_DEWT_062014.nc | 15-Nov-2024 09:32 | 1627040 | ||
| 46053_TS_DEWT_062015.nc | 15-Nov-2024 10:07 | 1627877 | ||
| 46053_TS_DEWT_062016.nc | 15-Nov-2024 11:02 | 1627760 | ||
| 46053_TS_DEWT_062017.nc | 15-Nov-2024 11:52 | 1626487 | ||
| 46053_TS_DEWT_062018.nc | 15-Nov-2024 12:46 | 1627652 | ||
| 46053_TS_DEWT_062019.nc | 15-Nov-2024 13:48 | 1626177 | ||
| 46053_TS_DEWT_062020.nc | 15-Nov-2024 14:46 | 1627835 | ||
| 46053_TS_DEWT_062021.nc | 15-Nov-2024 15:34 | 1627879 | ||
| 46053_TS_DEWT_062022.nc | 15-Nov-2024 15:56 | 1626431 | ||
| 46053_TS_DEWT_062023.nc | 15-Nov-2024 16:48 | 1462688 | ||
| 46053_TS_DEWT_062025.nc | 01-Jul-2025 03:56 | 1477674 | ||
| 46053_TS_DEWT_071994.nc | 14-Nov-2024 19:42 | 1475153 | ||
| 46053_TS_DEWT_071995.nc | 14-Nov-2024 20:27 | 1476231 | ||
| 46053_TS_DEWT_071996.nc | 14-Nov-2024 21:11 | 1472107 | ||
| 46053_TS_DEWT_071998.nc | 14-Nov-2024 21:53 | 1477870 | ||
| 46053_TS_DEWT_071999.nc | 14-Nov-2024 22:46 | 1477977 | ||
| 46053_TS_DEWT_072000.nc | 14-Nov-2024 23:27 | 1477996 | ||
| 46053_TS_DEWT_072001.nc | 15-Nov-2024 00:16 | 1477639 | ||
| 46053_TS_DEWT_072002.nc | 15-Nov-2024 01:03 | 1477144 | ||
| 46053_TS_DEWT_072003.nc | 15-Nov-2024 01:54 | 1476964 | ||
| 46053_TS_DEWT_072004.nc | 15-Nov-2024 02:40 | 1477251 | ||
| 46053_TS_DEWT_072005.nc | 15-Nov-2024 03:20 | 1477285 | ||
| 46053_TS_DEWT_072006.nc | 15-Nov-2024 04:10 | 1476807 | ||
| 46053_TS_DEWT_072007.nc | 15-Nov-2024 04:54 | 1477779 | ||
| 46053_TS_DEWT_072008.nc | 15-Nov-2024 05:37 | 1476646 | ||
| 46053_TS_DEWT_072009.nc | 15-Nov-2024 06:17 | 1477887 | ||
| 46053_TS_DEWT_072010.nc | 15-Nov-2024 06:47 | 1476082 | ||
| 46053_TS_DEWT_072011.nc | 15-Nov-2024 07:15 | 1459619 | ||
| 46053_TS_DEWT_072012.nc | 15-Nov-2024 07:54 | 1627666 | ||
| 46053_TS_DEWT_072013.nc | 15-Nov-2024 08:49 | 1477674 | ||
| 46053_TS_DEWT_072014.nc | 15-Nov-2024 09:37 | 1627345 | ||
| 46053_TS_DEWT_072015.nc | 15-Nov-2024 10:12 | 1627676 | ||
| 46053_TS_DEWT_072016.nc | 15-Nov-2024 11:07 | 1627575 | ||
| 46053_TS_DEWT_072017.nc | 15-Nov-2024 11:57 | 1627818 | ||
| 46053_TS_DEWT_072018.nc | 15-Nov-2024 12:52 | 1627875 | ||
| 46053_TS_DEWT_072019.nc | 15-Nov-2024 13:53 | 1626627 | ||
| 46053_TS_DEWT_072020.nc | 15-Nov-2024 14:51 | 1627826 | ||
| 46053_TS_DEWT_072021.nc | 15-Nov-2024 15:36 | 1627625 | ||
| 46053_TS_DEWT_072022.nc | 15-Nov-2024 15:59 | 1627818 | ||
| 46053_TS_DEWT_072023.nc | 15-Nov-2024 16:52 | 1627802 | ||
| 46053_TS_DEWT_072025.nc | 01-Aug-2025 04:03 | 1627612 | ||
| 46053_TS_DEWT_081994.nc | 14-Nov-2024 19:46 | 1626710 | ||
| 46053_TS_DEWT_081995.nc | 14-Nov-2024 20:32 | 1627572 | ||
| 46053_TS_DEWT_081996.nc | 14-Nov-2024 21:14 | 1627460 | ||
| 46053_TS_DEWT_081998.nc | 14-Nov-2024 21:58 | 1627253 | ||
| 46053_TS_DEWT_081999.nc | 14-Nov-2024 22:49 | 1471121 | ||
| 46053_TS_DEWT_082000.nc | 14-Nov-2024 23:31 | 1477955 | ||
| 46053_TS_DEWT_082001.nc | 15-Nov-2024 00:21 | 1477676 | ||
| 46053_TS_DEWT_082002.nc | 15-Nov-2024 01:07 | 1477606 | ||
| 46053_TS_DEWT_082003.nc | 15-Nov-2024 01:56 | 1477654 | ||
| 46053_TS_DEWT_082004.nc | 15-Nov-2024 02:44 | 1477973 | ||
| 46053_TS_DEWT_082005.nc | 15-Nov-2024 03:24 | 1477974 | ||
| 46053_TS_DEWT_082006.nc | 15-Nov-2024 04:14 | 1476477 | ||
| 46053_TS_DEWT_082007.nc | 15-Nov-2024 04:56 | 1477921 | ||
| 46053_TS_DEWT_082008.nc | 15-Nov-2024 05:41 | 1476929 | ||
| 46053_TS_DEWT_082009.nc | 15-Nov-2024 06:19 | 1477299 | ||
| 46053_TS_DEWT_082010.nc | 15-Nov-2024 06:50 | 1477946 | ||
| 46053_TS_DEWT_082011.nc | 15-Nov-2024 07:18 | 1477864 | ||
| 46053_TS_DEWT_082012.nc | 15-Nov-2024 07:58 | 1477630 | ||
| 46053_TS_DEWT_082013.nc | 15-Nov-2024 08:53 | 1472950 | ||
| 46053_TS_DEWT_082014.nc | 15-Nov-2024 09:41 | 1477358 | ||
| 46053_TS_DEWT_082015.nc | 15-Nov-2024 10:16 | 1477950 | ||
| 46053_TS_DEWT_082016.nc | 15-Nov-2024 11:11 | 1475609 | ||
| 46053_TS_DEWT_082017.nc | 15-Nov-2024 12:01 | 1478589 | ||
| 46053_TS_DEWT_082018.nc | 15-Nov-2024 12:57 | 1627816 | ||
| 46053_TS_DEWT_082019.nc | 15-Nov-2024 13:58 | 1627250 | ||
| 46053_TS_DEWT_082020.nc | 15-Nov-2024 14:55 | 1625282 | ||
| 46053_TS_DEWT_082021.nc | 15-Nov-2024 15:38 | 1627625 | ||
| 46053_TS_DEWT_082022.nc | 15-Nov-2024 16:02 | 1627846 | ||
| 46053_TS_DEWT_082023.nc | 15-Nov-2024 16:56 | 1627855 | ||
| 46053_TS_DEWT_082025.nc | 01-Sep-2025 04:09 | 1627774 | ||
| 46053_TS_DEWT_091994.nc | 14-Nov-2024 19:49 | 1627677 | ||
| 46053_TS_DEWT_091995.nc | 14-Nov-2024 20:35 | 1627083 | ||
| 46053_TS_DEWT_091996.nc | 14-Nov-2024 21:18 | 1627618 | ||
| 46053_TS_DEWT_091998.nc | 14-Nov-2024 22:02 | 1627809 | ||
| 46053_TS_DEWT_091999.nc | 14-Nov-2024 22:53 | 1625199 | ||
| 46053_TS_DEWT_092000.nc | 14-Nov-2024 23:34 | 1627447 | ||
| 46053_TS_DEWT_092001.nc | 15-Nov-2024 00:25 | 1627776 | ||
| 46053_TS_DEWT_092002.nc | 15-Nov-2024 01:11 | 1627234 | ||
| 46053_TS_DEWT_092003.nc | 15-Nov-2024 02:01 | 1475640 | ||
| 46053_TS_DEWT_092004.nc | 15-Nov-2024 02:49 | 1153312 | ||
| 46053_TS_DEWT_092005.nc | 15-Nov-2024 03:29 | 429594 | ||
| 46053_TS_DEWT_092006.nc | 15-Nov-2024 04:20 | 429596 | ||
| 46053_TS_DEWT_092007.nc | 15-Nov-2024 05:00 | 429688 | ||
| 46053_TS_DEWT_092008.nc | 15-Nov-2024 05:45 | 429606 | ||
| 46053_TS_DEWT_092009.nc | 15-Nov-2024 06:22 | 429614 | ||
| 46053_TS_DEWT_092010.nc | 15-Nov-2024 06:52 | 429613 | ||
| 46053_TS_DEWT_092011.nc | 15-Nov-2024 07:21 | 429608 | ||
| 46053_TS_DEWT_092012.nc | 15-Nov-2024 08:02 | 429586 | ||
| 46053_TS_DEWT_092013.nc | 15-Nov-2024 08:59 | 429673 | ||
| 46053_TS_DEWT_092014.nc | 15-Nov-2024 09:45 | 429681 | ||
| 46053_TS_DEWT_092015.nc | 15-Nov-2024 10:21 | 429679 | ||
| 46053_TS_DEWT_092016.nc | 15-Nov-2024 11:15 | 429685 | ||
| 46053_TS_DEWT_092017.nc | 15-Nov-2024 12:05 | 429679 | ||
| 46053_TS_DEWT_092018.nc | 15-Nov-2024 13:03 | 429677 | ||
| 46053_TS_DEWT_092019.nc | 15-Nov-2024 14:03 | 429684 | ||
| 46053_TS_DEWT_092020.nc | 15-Nov-2024 14:59 | 429692 | ||
| 46053_TS_DEWT_092021.nc | 15-Nov-2024 15:39 | 429679 | ||
| 46053_TS_DEWT_092022.nc | 15-Nov-2024 16:06 | 427131 | ||
| 46053_TS_DEWT_092023.nc | 15-Nov-2024 16:59 | 429685 | ||
| 46053_TS_DEWT_092025.nc | 01-Oct-2025 03:29 | 429986 | ||
| 46053_TS_DEWT_101994.nc | 14-Nov-2024 19:53 | 429902 | ||
| 46053_TS_DEWT_101995.nc | 14-Nov-2024 20:39 | 429905 | ||
| 46053_TS_DEWT_101996.nc | 14-Nov-2024 21:22 | 429677 | ||
| 46053_TS_DEWT_101998.nc | 14-Nov-2024 22:07 | 429904 | ||
| 46053_TS_DEWT_101999.nc | 14-Nov-2024 22:56 | 429902 | ||
| 46053_TS_DEWT_102000.nc | 14-Nov-2024 23:38 | 429882 | ||
| 46053_TS_DEWT_102001.nc | 15-Nov-2024 00:28 | 426266 | ||
| 46053_TS_DEWT_102002.nc | 15-Nov-2024 01:15 | 429886 | ||
| 46053_TS_DEWT_102003.nc | 15-Nov-2024 02:05 | 429904 | ||
| 46053_TS_DEWT_102004.nc | 15-Nov-2024 02:53 | 429909 | ||
| 46053_TS_DEWT_102005.nc | 15-Nov-2024 03:33 | 429901 | ||
| 46053_TS_DEWT_102006.nc | 15-Nov-2024 04:24 | 429905 | ||
| 46053_TS_DEWT_102007.nc | 15-Nov-2024 05:03 | 429903 | ||
| 46053_TS_DEWT_102008.nc | 15-Nov-2024 05:50 | 429902 | ||
| 46053_TS_DEWT_102009.nc | 15-Nov-2024 06:25 | 429798 | ||
| 46053_TS_DEWT_102010.nc | 15-Nov-2024 06:54 | 429898 | ||
| 46053_TS_DEWT_102011.nc | 15-Nov-2024 07:24 | 429906 | ||
| 46053_TS_DEWT_102012.nc | 15-Nov-2024 08:07 | 429905 | ||
| 46053_TS_DEWT_102013.nc | 15-Nov-2024 09:05 | 429899 | ||
| 46053_TS_DEWT_102014.nc | 15-Nov-2024 09:49 | 428592 | ||
| 46053_TS_DEWT_102015.nc | 15-Nov-2024 10:26 | 428593 | ||
| 46053_TS_DEWT_102016.nc | 15-Nov-2024 11:19 | 428603 | ||
| 46053_TS_DEWT_102017.nc | 15-Nov-2024 12:09 | 428954 | ||
| 46053_TS_DEWT_102018.nc | 15-Nov-2024 13:08 | 428608 | ||
| 46053_TS_DEWT_102019.nc | 15-Nov-2024 14:08 | 428608 | ||
| 46053_TS_DEWT_102020.nc | 15-Nov-2024 15:04 | 428608 | ||
| 46053_TS_DEWT_102021.nc | 15-Nov-2024 15:41 | 428943 | ||
| 46053_TS_DEWT_102022.nc | 15-Nov-2024 16:12 | 428609 | ||
| 46053_TS_DEWT_102023.nc | 15-Nov-2024 17:04 | 428493 | ||
| 46053_TS_DEWT_102024.nc | 12-Jan-2025 20:15 | 428684 | ||
| 46053_TS_DEWT_102025.nc | 01-Nov-2025 04:39 | 429029 | ||
| 46053_TS_DEWT_111994.nc | 14-Nov-2024 19:55 | 428681 | ||
| 46053_TS_DEWT_111995.nc | 14-Nov-2024 20:43 | 428683 | ||
| 46053_TS_DEWT_111996.nc | 14-Nov-2024 21:26 | 425420 | ||
| 46053_TS_DEWT_111998.nc | 14-Nov-2024 22:11 | 429027 | ||
| 46053_TS_DEWT_111999.nc | 14-Nov-2024 23:00 | 428684 | ||
| 46053_TS_DEWT_112000.nc | 14-Nov-2024 23:42 | 427309 | ||
| 46053_TS_DEWT_112001.nc | 15-Nov-2024 00:32 | 428680 | ||
| 46053_TS_DEWT_112002.nc | 15-Nov-2024 01:19 | 429203 | ||
| 46053_TS_DEWT_112003.nc | 15-Nov-2024 02:09 | 428876 | ||
| 46053_TS_DEWT_112004.nc | 15-Nov-2024 02:56 | 428877 | ||
| 46053_TS_DEWT_112005.nc | 15-Nov-2024 03:38 | 428860 | ||
| 46053_TS_DEWT_112006.nc | 15-Nov-2024 04:28 | 429220 | ||
| 46053_TS_DEWT_112007.nc | 15-Nov-2024 05:07 | 428871 | ||
| 46053_TS_DEWT_112008.nc | 15-Nov-2024 05:54 | 428876 | ||
| 46053_TS_DEWT_112009.nc | 15-Nov-2024 06:28 | 428873 | ||
| 46053_TS_DEWT_112010.nc | 15-Nov-2024 06:56 | 429221 | ||
| 46053_TS_DEWT_112011.nc | 15-Nov-2024 07:26 | 428874 | ||
| 46053_TS_DEWT_112012.nc | 15-Nov-2024 08:11 | 428870 | ||
| 46053_TS_DEWT_112013.nc | 15-Nov-2024 09:10 | 428874 | ||
| 46053_TS_DEWT_112014.nc | 15-Nov-2024 09:53 | 429223 | ||
| 46053_TS_DEWT_112015.nc | 15-Nov-2024 10:30 | 428868 | ||
| 46053_TS_DEWT_112016.nc | 15-Nov-2024 11:23 | 428876 | ||
| 46053_TS_DEWT_112017.nc | 15-Nov-2024 12:13 | 428628 | ||
| 46053_TS_DEWT_112018.nc | 15-Nov-2024 13:13 | 429219 | ||
| 46053_TS_DEWT_112019.nc | 15-Nov-2024 14:13 | 428878 | ||
| 46053_TS_DEWT_112020.nc | 15-Nov-2024 15:08 | 428871 | ||
| 46053_TS_DEWT_112021.nc | 15-Nov-2024 15:44 | 428874 | ||
| 46053_TS_DEWT_112022.nc | 15-Nov-2024 16:17 | 429597 | ||
| 46053_TS_DEWT_112023.nc | 15-Nov-2024 17:08 | 429567 | ||
| 46053_TS_DEWT_112024.nc | 17-Jan-2025 13:48 | 429611 | ||
| 46053_TS_DEWT_112025.nc | 01-Dec-2025 06:09 | 429603 | ||
| 46053_TS_DEWT_121994.nc | 14-Nov-2024 19:59 | 429560 | ||
| 46053_TS_DEWT_121995.nc | 14-Nov-2024 20:48 | 429612 | ||
| 46053_TS_DEWT_121996.nc | 14-Nov-2024 21:31 | 429614 | ||
| 46053_TS_DEWT_121998.nc | 14-Nov-2024 22:15 | 429665 | ||
| 46053_TS_DEWT_121999.nc | 14-Nov-2024 23:04 | 429597 | ||
| 46053_TS_DEWT_122000.nc | 14-Nov-2024 23:47 | 429690 | ||
| 46053_TS_DEWT_122001.nc | 15-Nov-2024 00:37 | 429683 | ||
| 46053_TS_DEWT_122002.nc | 15-Nov-2024 01:24 | 429685 | ||
| 46053_TS_DEWT_122003.nc | 15-Nov-2024 02:12 | 429691 | ||
| 46053_TS_DEWT_122004.nc | 15-Nov-2024 02:59 | 429678 | ||
| 46053_TS_DEWT_122005.nc | 15-Nov-2024 03:42 | 429679 | ||
| 46053_TS_DEWT_122006.nc | 15-Nov-2024 04:32 | 429686 | ||
| 46053_TS_DEWT_122007.nc | 15-Nov-2024 05:10 | 429679 | ||
| 46053_TS_DEWT_122008.nc | 15-Nov-2024 05:58 | 429679 | ||
| 46053_TS_DEWT_122009.nc | 15-Nov-2024 06:31 | 429685 | ||
| 46053_TS_DEWT_122010.nc | 15-Nov-2024 06:58 | 429899 | ||
| 46053_TS_DEWT_122011.nc | 15-Nov-2024 07:29 | 429907 | ||
| 46053_TS_DEWT_122012.nc | 15-Nov-2024 08:16 | 429879 | ||
| 46053_TS_DEWT_122013.nc | 15-Nov-2024 09:14 | 429886 | ||
| 46053_TS_DEWT_122014.nc | 15-Nov-2024 09:58 | 429878 | ||
| 46053_TS_DEWT_122015.nc | 15-Nov-2024 10:36 | 429902 | ||
| 46053_TS_DEWT_122016.nc | 15-Nov-2024 11:27 | 429905 | ||
| 46053_TS_DEWT_122017.nc | 15-Nov-2024 12:18 | 429899 | ||
| 46053_TS_DEWT_122018.nc | 15-Nov-2024 13:17 | 429906 | ||
| 46053_TS_DEWT_122019.nc | 15-Nov-2024 14:18 | 429903 | ||
| 46053_TS_DEWT_122020.nc | 15-Nov-2024 15:13 | 429901 | ||
| 46053_TS_DEWT_122021.nc | 15-Nov-2024 15:46 | 429907 | ||
| 46053_TS_DEWT_122022.nc | 15-Nov-2024 16:21 | 429903 | ||
| 46053_TS_DEWT_122023.nc | 15-Nov-2024 17:12 | 429901 | ||
| 46053_TS_DEWT_122024.nc | 22-Jan-2025 15:56 | 429909 | ||
| 46053_TS_DEWT_122025.nc | 01-Jan-2026 07:41 | 429879 | ||